Regional Weather Roundup
Issued by NWS

Home | Current Version | Previous Version | Text Only | Print | Product List | Glossary Off
Versions: 1 2 3 4 5 6 7 8 9 10 11 12 13 14 15 16 17 18 19 20 21 22 23 24 25 26 27 28 29 30 31 32 33 34 35 36 37 38 39 40 41 42 43 44 45 46 47 48 49 50

000
ASUS45 KCYS 242010
RWRWY

WYOMING REGIONAL WEATHER ROUNDUP
NATIONAL WEATHER SERVICE CHEYENNE WY
200 PM MDT FRI APR 24 2015

NOTE:  "FAIR" INDICATES FEW OR NO CLOUDS BELOW 12,000 FEET
WITH NO SIGNIFICANT WEATHER AND/OR OBSTRUCTIONS TO VISIBILITY.

WYZ001-242100-
YELLOWSTONE NATIONAL PARK

CITY           SKY/WX    TMP DP  RH WIND       PRES   REMARKS
LK YELLOWSTONE   N/A     48  23  37 W9        29.73F
W YELLOWSTONE  NOT AVBL

$$
WYZ002>013-054>058-071-098>099-242100-
NORTHERN WYOMING

CITY           SKY/WX    TMP DP  RH WIND       PRES   REMARKS
JACKSON        MOSUNNY   57  28  33 S15G21    29.68F
CODY           PTSUNNY   63  30  29 CALM      29.58F
GREYBULL       FAIR      68  26  20 VRB6      29.55F
WORLAND        FAIR      67  29  24 S6        29.56F
SHERIDAN       FAIR      63  37  38 S9        29.57F
BUFFALO        PTSUNNY   62  39  42 S9        29.62F
GILLETTE       CLOUDY    63  38  39 NE7       29.59S
HULETT         FAIR      66  30  26 E8G17     29.61F
NEWCASTLE      RAIN      50  43  76 NE14      29.62R

$$
WYZ014>020-022>026-101>103-242100-
CENTRAL WYOMING

CITY           SKY/WX    TMP DP  RH WIND       PRES   REMARKS
BIG PINEY      CLOUDY    49  36  61 E16       29.73F
PINEDALE       MOCLDY    43  34  70 N3        29.75F
DUBOIS         FAIR      54  19  26 W12G20    29.66F
LANDER         PTSUNNY   63  30  28 E5        29.59F
RIVERTON       FAIR      66  22  18 VRB7      29.60F
CASPER         FAIR      66  26  22 W12G20    29.61F
DOUGLAS        FAIR      66  32  28 NW12G23   29.61F

$$
WYZ021-027>030-104>119-242100-
SOUTHERN WYOMING

CITY           SKY/WX    TMP DP  RH WIND       PRES   REMARKS
EVANSTON       CLOUDY    53  30  41 SW16      29.73F
KEMMERER       LGT RAIN  41  36  81 NW6       29.77R
FORT BRIDGER   MOCLDY    50  37  62 NW21G32   29.77S
ROCK SPRINGS   PTSUNNY   55  28  35 NW16      29.71F
DIXON          FAIR      61  25  25 W22       29.73F
RAWLINS        LGT RAIN  51  28  41 SW12      29.71S
SARATOGA       MOCLDY    59  27  29 W18G26    29.71F
LARAMIE        FAIR      51  30  44 NW9       29.72F
CHEYENNE       CLOUDY    58  25  28 NW12G20   29.66F
TORRINGTON     FAIR      66  33  29 NW12G18   29.57F
PINE BLUFFS    MOCLDY    61  28  29 NW7       29.65S

$$


USA.gov is the U.S. government's official web portal to all federal, state and local government web resources and services.